User: anonymous
Location: Vancouver
(49.2500°N, 123.1330°W)
Time: 14:06:21
(UTC-07:00)
Language:

Cosmos 676 Rocket - Orbit

View from above orbital plane
View from above orbital plane
View from above satellite
View from above satellite

Ground track
Ground track

The orbit data is extracted from the following two-line orbital elements,

1 07434U 74071B   14112.71258671  .00000312  00000-0  11544-3 0  1922
2 07434 074.0471 168.1033 0021192 359.5828 138.3257 14.36226202 71375
Epoch (UTC): 22 April 2014 17:06:07
Eccentricity: 0.0021192
inclination: 74.0471°
perigee height: 756 km
apogee height: 786 km
right ascension of ascending node: 168.1033°
argument of perigee: 359.5828°
revolutions per day: 14.36226202
mean anomaly at epoch: 138.3257°
orbit number at epoch: 7137

The dashed part of the orbit path shows where the satellite is in the earth's shadow,  

DLR